Worcester, MA

5:12 AM EST on November 22, 2019 (GMT -0500)
Worcester Regional

Weather History for KORH - October, 2019

Change the Weather History Date:

Monday, October 21, 2019

  Actual Average Record
Temperature  
Mean Temperature 54 °F 48 °F  
Max Temperature 61 °F 57 °F 80 °F (1920)
Min Temperature 46 °F 40 °F 22 °F (1952)
Degree Days  
Heating Degree Days 12 17  
Month to date heating degree days 264 284  
Since 1 July heating degree days 404 477  
Cooling Degree Days 0 0  
Month to date cooling degree days 0 0  
Year to date cooling degree days 545 468  
Growing Degree Days 4 (Base 50)    
Moisture  
Dew Point 46 °F    
Average Humidity 89    
Maximum Humidity 100    
Minimum Humidity 56    
Precipitation  
Precipitation T in 0.15 in 4.10 in (2016)
Month to date precipitation 4.66 3.25  
Year to date precipitation 42.08 38.54  
Sea Level Pressure  
Sea Level Pressure 30.10 in    
Wind  
Wind Speed 7 mph ()    
Max Wind Speed 14 mph    
Max Gust Speed 19 mph    
Visibility 6.3 miles    
Events Fog , Rain    
T = Trace of Precipitation, MM = Missing Value Source: Averaged Metar Reports

Daily Weather History Graph

Daily Weather History Graph

Search for Another Location

Airport or City:

Astronomy

Oct. 21, 2019 Rise Set
Actual Time 7:06 AM EDT 5:56 PM EDT
Civil Twilight 6:38 AM EDT 6:25 PM EDT
Nautical Twilight 6:05 AM EDT 6:57 PM EDT
Astronomical Twilight 5:33 AM EDT 7:30 PM EDT
Moon No Moon Rise 2:26 PM EDT (10/21)
Length of Visible Light 11h 46m
Length of Day
10h 49m
Waning Gibbous, 48% of the Moon is Illuminated
Oct 21
Waning Gibbous
Oct 27
New
Nov 4
First Quarter
Nov 12
Full
Nov 19
Last Quarter

Hourly Weather History & Observations

Time (EDT) Temp. Windchill Dew Point Humidity Pressure Visibility Wind Dir Wind Speed Gust Speed Precip Events Conditions
12:54 AM 48.0 °F - 46.0 °F 93% 30.06 in 10.0 mi NNW 6.9 mph - N/A   Overcast
1:54 AM 48.0 °F - 45.0 °F 89% 30.05 in 10.0 mi NE 4.6 mph - N/A   Overcast
2:38 AM 48.0 °F - 46.0 °F 93% 30.02 in 10.0 mi NNE 6.9 mph - N/A   Overcast
2:54 AM 48.0 °F - 46.9 °F 96% 30.04 in 10.0 mi NNE 6.9 mph - N/A   Overcast
3:54 AM 46.9 °F - 46.9 °F 100% 30.04 in 6.0 mi North 8.1 mph - N/A   Overcast
4:54 AM 46.9 °F - 46.0 °F 97% 30.05 in 6.0 mi North 9.2 mph - N/A   Overcast
5:13 AM 46.9 °F - 46.0 °F 97% 30.04 in 2.0 mi NNE 9.2 mph - N/A   Overcast
5:23 AM 46.9 °F - 46.0 °F 97% 30.04 in 1.8 mi North 9.2 mph - N/A   Overcast
5:40 AM 46.9 °F - 46.0 °F 97% 30.05 in 0.8 mi Variable 5.8 mph - N/A   Mist
5:54 AM 46.0 °F 41.9 °F 46.0 °F 100% 30.07 in 0.8 mi NNE 8.1 mph 17.3 mph N/A   Mist
6:30 AM 46.0 °F 41.4 °F 46.0 °F 100% 30.06 in 0.2 mi North 9.2 mph - N/A Fog Fog
6:54 AM 46.0 °F 41.0 °F 46.0 °F 100% 30.09 in 0.2 mi NNE 10.4 mph - 0.00 in Fog , Rain Light Rain
7:10 AM 46.0 °F 42.5 °F 46.0 °F 100% 30.08 in 0.5 mi North 6.9 mph - 0.00 in Fog Fog
7:36 AM 46.9 °F - 46.9 °F 100% 30.09 in 2.0 mi NNE 9.2 mph - 0.00 in   Overcast
7:52 AM 46.4 °F 41.5 °F 46.4 °F 100% 30.09 in 0.8 mi NNE 10.4 mph - 0.00 in   Overcast
7:53 AM 46.9 °F - 46.9 °F 100% 30.11 in 0.8 mi NE 8.1 mph - 0.00 in   Overcast
8:04 AM 46.9 °F - 46.9 °F 100% 30.09 in 0.2 mi NE 6.9 mph - N/A Fog Fog
8:30 AM 46.0 °F 41.9 °F 46.0 °F 100% 30.09 in 1.8 mi NNE 8.1 mph - N/A   Overcast
8:54 AM 46.0 °F 42.5 °F 46.0 °F 100% 30.11 in 2.5 mi NE 6.9 mph 16.1 mph N/A   Overcast
9:01 AM 46.0 °F 41.4 °F 46.0 °F 100% 30.09 in 4.0 mi NNE 9.2 mph - N/A   Overcast
9:13 AM 46.0 °F 43.1 °F 46.0 °F 100% 30.10 in 1.5 mi NNE 5.8 mph - N/A   Overcast
9:43 AM 46.0 °F 41.0 °F 46.0 °F 100% 30.09 in 8.0 mi North 10.4 mph - N/A   Overcast
9:54 AM 46.0 °F 41.4 °F 46.0 °F 100% 30.11 in 10.0 mi NNE 9.2 mph - N/A   Overcast
10:21 AM 48.9 °F - 46.0 °F 90% 30.09 in 10.0 mi North 9.2 mph - N/A   Scattered Clouds
10:54 AM 52.0 °F - 46.0 °F 80% 30.11 in 10.0 mi NNE 9.2 mph - N/A   Clear
11:54 AM 55.9 °F - 44.1 °F 64% 30.12 in 10.0 mi NNE 10.4 mph - N/A   Clear
12:54 PM 57.9 °F - 42.1 °F 56% 30.11 in 10.0 mi NNE 9.2 mph - N/A   Clear
1:54 PM 59.0 °F - 45.0 °F 60% 30.10 in 10.0 mi NE 8.1 mph - N/A   Clear
2:54 PM 60.1 °F - 46.9 °F 62% 30.09 in 10.0 mi NE 6.9 mph - N/A   Clear
3:54 PM 61.0 °F - 46.9 °F 60% 30.10 in 10.0 mi NNE 8.1 mph - N/A   Clear
4:54 PM 61.0 °F - 46.9 °F 60% 30.12 in 10.0 mi NNE 3.5 mph - N/A   Clear
5:54 PM 55.9 °F - 46.0 °F 69% 30.13 in 10.0 mi East 5.8 mph - N/A   Clear
6:54 PM 53.1 °F - 46.0 °F 77% 30.16 in 10.0 mi East 3.5 mph - N/A   Clear
7:54 PM 52.0 °F - 46.0 °F 80% 30.16 in 10.0 mi Calm Calm - N/A   Clear
8:54 PM 51.1 °F - 46.0 °F 83% 30.17 in 10.0 mi North 3.5 mph - N/A   Clear
9:54 PM 50.0 °F - 46.0 °F 86% 30.19 in 10.0 mi NNE 5.8 mph - N/A   Clear
10:54 PM 48.0 °F - 46.0 °F 93% 30.17 in 10.0 mi NE 5.8 mph - N/A   Clear
11:54 PM 46.9 °F - 45.0 °F 93% 30.15 in 10.0 mi NNE 6.9 mph - N/A   Clear